DECAYED
Showing default

CYGNUS NG-23, 65616 (Decayed)

Orbit data source: Space-Track

CYGNUS NG-23, 65616 was a payload satellite owned by NGIS (US) in LEO that was launched on Sun, 14 Sep 2025 UTC via an FALCON 9 launch vehicle from the Air Force Eastern Test Range (AFETR). Payload-class satellites include a variety of spacecraft equipped with specific instruments for various scientific and technological missions. These include communications satellites like Starlink; space stations such as the ISS; scientific satellites like the Hubble; Earth observation satellites from companies like Planet Labs, Umbra, and HawkEye 360; GPS; miniature CubeSats for education and research; and military/defense satellites.

Loading next visibility...
Identifier
65616, 2025-208A
Orbit
Decayed
Country
Flag of USUS
Related business
Manufacturer
NGIS SSG
Mission
Decayed Commercial Spaceship
Bus & Motor
SPCM, Unknown motor
Mass
~10,200 kg wet, ~3,290 kg dry
Launch date (UTC)
2025-09-14 (9 months ago)
Launch vehicle
FALCON 9
Launch site
Air Force Eastern Test Range (AFETR)
Object type
Payload
Rocket body
Debris
Shape & HBR
Cyl + 2 Pan, 14.5 m
Radar Cross Section
28.189 m², Large (>1 m²)

Expand to show TLE details & history
Last TLE update: 3 months ago

TLE from 3 months ago
0 CYGNUS NG-23
1 65616U 25208A   26073.41651519  .00013590  00000-0  24569-3 0  9998
2 65616  51.6322  48.9706 0007782 192.9507 167.1283 15.49977850   324
Epoch: 2026-03-14T09:59Z
TLE epoch observation values (Epoch: 2026-03-14T09:59:46.912Z)
Latitude
-0.00003°
Longitude
86.9871°
Altitude
422.686 km
Speed
7.656 km/s
True Right ascension
03h 15m 52s
True Declination
0° 00' 00"
Sunlit
Object was in daylight at epoch
Visualization orbit readout
Latitude
Unknown
Longitude
Unknown
Altitude
Unknown
Speed
Unknown
Apparent Right ascension
Unknown
Apparent Declination
Unknown
Sunlit
N/A
Visualization observer readout
Local Sidereal Time
10:17:59
Azimuth
Unknown
Elevation
Unknown
Doppler factor
Unknown
Orbital elements
Apogee altitude
422.588 km
Perigee altitude
412.012 km
Semi-major axis
6,795.437 km
Eccentricity
0.00078
Inclination
51.6322°
RAAN
48.9706°
Arg. of periapsis
192.9507°
True anomaly
167.14815°
Mean anomaly
167.1283°
Eccentric anomaly
167.13823°
Mean motion
3.87451 °/min
Orbital period
92.91 mins
BSTAR
0.00024569
Loading maneuver chart data...
Computing Atmospheric mass density...
Loading historical data...
Loading historical data...
Loading historical data...
Loading historical data...
Loading historical data...
Loading historical data...
Loading historical data...
Other satellites on launch #208 in the year 2025 (2025-09-14 UTC)

Documentation

Showing up to 5 results
|